#timestamp,LO_Frequency,Hit,StdDev 
1596943995.9,286047039.5,P
1596944015.7,286047038.4,P
1596944035.6,286047041.1,P
1596944055.4,286047038.5,Y
1596944075.3,286047001.0,P
1596944095.1,286047000.8,N
1596944096.0,286047000.8,N
1596944115.8,286047002.3,N
1596944135.7,286047000.1,N
1596944155.5,286047002.2,N
1596944175.3,286047004.0,N
1596944195.2,286047006.0,N
1596944215.0,286047006.0,N
1596944215.9,286047006.0,N
1596944235.8,286047005.3,N
1596944255.6,286047002.9,N
1596944275.4,286047005.5,N
1596944295.3,286047003.4,N
1596944315.1,286047003.0,N
1596944335.8,286047005.0,N
1596944355.7,286047005.4,N
1596944375.5,286047007.6,N
1596944395.4,286047004.5,N
1596944415.2,286047005.1,N
1596944435.0,286047004.6,N
1596944435.9,286047004.6,N
1596944455.8,286047007.6,N
1596944475.6,286047006.7,N
1596944495.4,286047009.0,N
1596944515.3,286047009.1,N
1596944535.1,286047008.4,N
1596944555.9,286047008.2,N
1596944575.7,286047008.1,N
1596944595.5,286047010.8,N
1596944615.4,286047010.6,Y
1596944635.2,286047005.7,P
1596944655.1,286047005.1,P
1596944656.0,286047005.1,P
1596944675.8,286047007.5,Y
1596944695.6,286046999.7,P
1596944715.5,286047000.2,N
1596944735.3,286047002.7,N
1596944755.1,286047001.8,N
1596944775.9,286047002.0,N
1596944795.7,286047002.0,N
1596944815.6,286047001.3,N
1596944835.4,286047002.3,N
1596944855.2,286047002.1,N
1596944875.1,286047002.8,N
1596944876.0,286047002.8,N
1596944895.8,286047001.6,N
1596944915.6,286047001.9,N
1596944935.5,286047004.1,Y
1596944955.3,286047000.6,P
1596944975.2,286047000.7,N
1596944995.9,286047000.7,N
1596945015.7,286046998.6,N
1596945035.6,286047000.9,N
1596945055.4,286047000.7,N
1596945075.2,286047000.1,N
1596945095.1,286047000.5,N
1596945096.0,286047000.5,N
1596945115.8,286047000.4,N
1596945135.7,286046999.9,N
1596945155.5,286047000.1,N
1596945175.3,286047002.5,Y
1596945195.2,286047002.6,P
1596945215.0,286047002.8,N
1596945215.9,286047002.8,N
1596945235.8,286047002.5,N
1596945255.6,286046999.8,N
1596945275.4,286047002.6,N
1596945295.3,286047002.3,N
1596945315.1,286047002.7,N
1596945335.8,286047001.8,N
1596945355.7,286047001.8,N
1596945375.5,286047001.5,N
1596945395.4,286047001.6,N
1596945415.2,286047002.2,N
1596945435.0,286047001.7,N
1596945435.9,286047001.7,N
1596945455.8,286047002.7,Y
1596945475.6,286047000.8,P
1596945495.5,286047000.1,N
1596945515.3,286046999.9,N
1596945535.1,286047000.9,N
1596945555.9,286046998.1,N
1596945575.7,286046999.8,N
1596945595.5,286047001.0,N
